格洛纳斯M-758 COSMOS 2534 [GLONASS-M]

导读 | 豆包AI

COSMOS 2534(GLONASS)是独联体(CIS)于2019年5月27日发射的格洛纳斯导航卫星,属于俄罗斯“宇宙”(Kosmos)系列。该系列涵盖军事、科学等多类卫星,统一命名方式增加任务保密性,这颗卫星旨在补充完善全球导航卫星系统,提升定位导航覆盖精度与可靠性,服务军民领域,目前仍在轨运行,维持格洛纳斯星座服务能力。

基本信息
目录编号:
44299
目录名称:
COSMOS 2534 (GLONASS)
国际标识:
2019-030A
轨道中心:
EARTH
卫星名称:
格洛纳斯M-758
卫星全名:
格洛纳斯M-758 COSMOS 2534 [GLONASS-M]
卫星状态:
在轨 (已飞行2483 天)
发射日期:
2019-05-27 UTC
国别 :
俄罗斯(独联体) (CIS)
星等 :
--
轨道信息
数据来源 国际轨道数据 AOE轨道数据
星历时间 2026-03-14T02:47:18+0800
14小时前
查看轨道信息
2026-03-14T10:00:00+0800
6小时前
查看轨道信息
半长轴 25507.993km 25507.969km
偏心率 0.0009952 0.0009972
轨道倾角 64.369° 64.368°
近地点辐角 279.353° 279.150°
升交点赤经 195.826° 195.816°
平近点角 108.630° 339.356°
近地点 19104.47km 19104.395km
远地点 19155.242km 19155.269km
周期 675.731分钟 675.731分钟
每日圈数 2.131024 2.131027
详细信息
平衡模式:
三轴稳定
覆盖范围:
全球
运营商:
列舍特涅夫卫星信息系统
运营商所在国:
俄罗斯
制造商(研发单位):
列舍特涅夫卫星信息系统
制造商所在国:
俄罗斯
使用方式:
暂无
卫星简介
格洛纳斯(GLONASS )是苏联/俄罗斯研制卫星导航系统。标准配置为24颗卫星,其中18颗卫星就能保证该系统为俄罗斯境内用户提供全部服务。该卫星仍在工作。
2D轨道图
3D轨道图
轨道高度分析图
轨道倾角分析图
轨道综合分析图
查看轨道综合分析图